Location: Bresle
(49.9834°N, 2.5570°E)
Time: 08:47:51
(UTC+00:00)

Daily predictions for brighter satellites

Satellite Brightness Start Highest point End
(mag) Time Altitude Azimuth Time Altitude Azimuth Time Altitude Azimuth
NOSS 2-2 (C) 4.4 16:50:23 10° NW 16:55:40 78° NE 17:03:04 10° SE
CZ-4C R/B 3.9 16:52:06 10° NW 16:57:17 26° N 17:03:17 10° ENE
Cosmos 2227 Rocket 2.5 16:52:18 10° NNW 16:57:47 47° NE 17:03:14 10° SE
Cosmos 2263 Rocket 3.9 16:55:34 10° N 16:58:54 16° NNE 17:02:15 10° ENE
Cosmos 1908 3.5 16:56:06 10° SSW 16:59:57 74° W 17:03:52 10° N
Meteor 1-16 Rocket 4.5 16:55:05 10° SSW 17:00:40 74° WNW 17:06:06 10° N
Cosmos 1110 Rocket 4.0 16:55:49 10° SSW 17:01:01 69° ESE 17:06:13 10° NNE
Cosmos 1939 Rocket 3.8 16:59:17 10° ESE 17:02:35 26° ENE 17:05:51 10° N
USA 307 3.0 17:00:53 10° WNW 17:05:10 66° NNE 17:09:25 10° ESE
H-2A R/B 2.0 17:01:25 10° NNE 17:05:36 88° ESE 17:09:42 10° SSW
COSMO-SKYMED 1 3.8 17:03:47 10° NE 17:07:10 22° E 17:10:31 10° SE
Landsat 5 3.7 17:04:56 10° N 17:08:49 71° WNW 17:12:47 10° SSW
Envisat 3.6 17:04:26 10° S 17:09:29 65° WSW 17:14:34 10° NNW
USA 308 3.0 17:05:51 10° WNW 17:10:09 69° NNE 17:14:25 10° ESE
Cosmos 1300 2.9 17:07:29 10° S 17:11:10 49° E 17:14:52 10° NNE
Cosmos 1486 Rocket 4.3 17:06:09 10° NNW 17:11:19 46° ENE 17:16:25 10° SE
Cosmos 1400 Rocket 3.5 17:09:11 10° SSE 17:12:52 33° E 17:16:32 10° NNE
CZ-4B R/B 1.8 17:10:03 10° NNE 17:13:05 37° E 17:16:00 10° SSE
Cosmos 1825 Rocket 3.7 17:09:06 10° NNW 17:13:34 82° W 17:17:59 10° S
Cosmos 1697 Rocket 4.0 17:10:23 10° SE 17:14:18 20° E 17:18:15 10° NE
Cosmos 1825 3.9 17:12:20 10° NNE 17:14:24 14° ENE 17:16:28 10° E
ERS-2 2.3 17:13:21 10° NNE 17:16:55 48° ESE 17:20:27 10° S
Helios 1A Rocket 3.8 17:16:22 10° SE 17:19:55 29° ENE 17:23:29 10° N
BREEZE-M TANK 3.9 17:10:19 10° W 17:21:12 57° S 17:24:53 10° ESE
Meteor 2-21 Rocket 4.5 17:15:00 10° N 17:21:13 88° E 17:27:21 10° S
YAOGAN 1 3.7 17:18:53 10° ESE 17:22:21 24° ENE 17:25:50 10° N
Cosmos 1340 2.7 17:22:09 10° N 17:25:53 55° ENE 17:29:36 10° SSE
NOAA 11 4.1 17:21:47 10° SSE 17:27:12 76° ENE 17:32:39 10° NNW
Cosmos 44 3.2 17:23:13 10° SW 17:27:46 86° SE 17:32:39 10° NE
CZ-2D R/B 3.9 17:24:26 10° SE 17:27:52 33° ENE 17:31:19 10° N
Okean O Rocket 2.3 17:24:48 10° S 17:29:07 60° WSW 17:33:26 10° NNW
Cosmos 2228 3.1 17:25:15 10° SSW 17:29:30 80° W 17:33:49 10° N
Cosmos 1726 Rocket 3.5 17:25:59 10° S 17:30:21 79° E 17:34:46 10° NNE
CZ-4 R/B 2.1 17:27:23 10° SE 17:30:43 28° ENE 17:34:03 10° N
Cosmos 1346 Rocket 3.4 17:29:56 10° N 17:33:39 35° ENE 17:37:21 10° SE
SL-4 R/B 1.7 17:30:10 10° WNW 17:33:42 71° N 17:36:33 16° E
Cosmos 2058 3.5 17:30:41 10° N 17:34:27 34° ENE 17:38:12 10° SE
Aureole 3 2.8 17:33:06 10° S 17:36:02 48° E 17:38:56 10° NNE
Cosmos 2369 Rocket 4.4 17:33:03 10° W 17:37:10 20° NW 17:41:17 10° N
Cosmos 2297 Rocket 2.3 17:31:43 10° NNW 17:37:26 83° WSW 17:43:06 10° SSE
Cosmos 1980 Rocket 3.6 17:34:39 10° SE 17:38:02 16° E 17:39:22 15° E
In-Cosmos 22 Rocket 4.1 17:33:50 10° N 17:39:13 71° ENE 17:44:41 10° SSE
CZ-2C R/B 3.6 17:39:07 10° SE 17:44:31 43° ENE 17:49:44 10° N
Cosmos 1315 Rocket 3.7 17:43:18 10° SSE 17:46:41 27° E 17:50:07 10° NNE
Cosmos 1606 Rocket 4.2 17:42:32 10° SSW 17:46:51 58° WNW 17:51:15 10° N
Cosmos 1553 Rocket 4.0 17:44:29 10° S 17:50:42 61° E 17:56:52 10° NNE
BREEZE-M R/B 3.4 17:50:21 10° W 17:53:59 85° S 17:59:00 19° E
USA 305 3.0 17:50:40 10° WNW 17:54:59 77° SSW 17:58:11 17° SE
SKYMED 2 3.5 17:51:13 10° NNE 17:55:32 61° ESE 17:59:50 10° S
Meteor 2-10 Rocket 3.7 17:51:28 10° SSE 17:56:29 47° E 18:01:22 10° NNE
Cosmos 1455 2.7 17:55:03 10° SSE 17:58:30 35° E 18:02:01 10° NNE
Cosmos 292 Rocket 4.5 17:54:25 10° SW 17:59:08 56° WNW 18:03:56 10° NNE
NOSS 3-4 (A) 4.1 17:54:04 10° NW 18:00:37 50° NE 18:05:39 20° ESE
NOSS 3-4 (C) 4.1 17:54:09 10° NW 18:00:43 50° NE 18:05:43 20° ESE
USA 306 3.1 17:57:12 10° WNW 18:01:28 72° SSW 18:04:26 19° SE
SeaSat 1 3.3 18:00:38 23° E 18:02:35 31° NE 18:06:53 10° NNW
H-2A R/B 2.4 17:59:49 10° SE 18:04:57 45° ENE 18:10:07 10° N
Okean-O 2.5 18:01:51 10° SSE 18:06:15 73° ENE 18:10:42 10° N
FALCON 9 DEB 3.0 18:03:41 10° WSW 18:06:55 75° NNW 18:07:57 39° ENE
MOS 1 Rocket 4.0 18:03:40 10° NNE 18:07:56 33° E 18:12:24 10° SSE
FALCON 9 DEB 3.0 18:05:39 10° WSW 18:08:51 71° NNW 18:09:47 41° NE
Cosmos 2219 4.3 18:05:23 10° NW 18:10:53 47° WSW 18:16:21 10° S
Cosmos 2278 4.4 18:06:19 10° SSE 18:11:12 31° ESE 18:12:45 27° ENE
NOSS 3-3 (A) 4.1 18:06:09 10° SSW 18:11:47 52° ESE 18:16:10 20° NE
NOSS 3-3 (C) 4.1 18:06:17 10° SSW 18:11:55 51° ESE 18:16:14 20° NE
Aureole 3 Rocket 3.7 18:07:50 10° SSW 18:12:08 72° WNW 18:18:14 10° N
USA 215 3.7 18:10:10 22° ENE 18:14:11 51° N 18:20:28 10° WNW
ATLAS 5 CENTAUR R/B 3.8 18:11:22 10° NW 18:14:39 18° N 18:17:34 12° NE
Cosmos 1745 Rocket 3.9 18:08:34 10° N 18:14:55 82° E 18:21:16 10° SSE
Cosmos 1408 2.5 18:14:28 10° N 18:18:09 88° W 18:21:49 10° S
Lacrosse 5 2.6 18:13:26 10° WNW 18:18:13 40° N 18:20:11 28° ENE
Cosmos 2082 3.7 18:12:32 10° NNW 18:18:18 85° WSW 18:24:02 10° SSE
Meteor 2-3 Rocket 4.5 18:13:37 10° N 18:18:42 31° ENE 18:19:36 30° E
Cosmos 44 Rocket 3.8 18:15:04 10° S 18:19:24 35° ESE 18:19:58 34° ESE
GEOS 3 Rocket 3.8 18:17:20 27° ESE 18:20:11 60° NE 18:25:31 10° NW
ARGOS 3.4 18:17:21 20° SE 18:20:48 46° ENE 18:25:59 10° N
HJ-1C 4.5 18:23:13 30° NNE 18:23:13 30° NNE 18:25:17 10° N
ATLAS 2AS CENTAUR R/B 3.1 18:15:14 10° NW 18:22:44 53° NE 18:26:17 29° E
Cosmos 968 Rocket 4.3 18:18:27 10° NNW 18:23:32 53° WSW 18:28:32 10° S
FALCON 9 DEB 3.1 18:20:23 10° W 18:23:37 64° NNW 18:24:00 57° NNE
ERBS 3.5 18:20:41 10° NW 18:23:38 28° NNE 18:23:42 28° NNE
Cosmos 1386 Rocket 4.5 18:17:14 10° N 18:23:41 88° ENE 18:30:02 10° S
Cosmos 1656 3.8 18:18:36 10° SSW 18:24:11 77° WNW 18:29:54 10° NNE
Cosmos 1689 Rocket 2.6 18:21:51 13° N 18:24:19 57° WNW 18:27:09 10° SSW
Cosmos 2058 Rocket 4.1 18:20:33 10° SSW 18:24:54 48° WNW 18:29:18 10° N
Cosmos 1844 Rocket 4.4 18:27:48 10° N 18:31:25 17° NNE 18:31:40 17° NE
Cosmos 1076 Rocket 3.4 18:28:15 10° N 18:32:32 85° W 18:36:47 10° S
FALCON 9 DEB 3.0 18:29:26 10° WNW 18:32:52 83° SSW 18:32:58 81° SSE
FALCON 9 DEB 3.3 18:29:58 10° W 18:33:08 57° NNW 18:33:08 57° NNW
Cosmos 1892 4.2 18:31:05 10° NNW 18:34:43 39° W 18:38:20 10° SSW
Cosmos 2369 3.6 18:29:49 10° SSW 18:35:28 66° ESE 18:39:11 22° NE
SJ 16-02 3.5 18:32:35 10° N 18:33:44 14° NNE 18:33:44 14° NNE
Cosmos 1777 Rocket 4.1 18:32:37 10° NNW 18:37:43 51° ENE 18:38:35 46° E
Cosmos 2227 Rocket 3.8 18:36:37 10° NW 18:41:43 35° WSW 18:46:47 10° S
CSL-04 Rocket 3.6 18:36:36 10° SSE 18:42:10 85° ENE 18:47:42 10° NNW
COSMO-SKYMED 1 3.6 18:39:23 10° N 18:43:34 47° WNW 18:47:43 10° SW
Cosmos 2263 Rocket 2.4 18:38:40 10° NNW 18:44:15 51° NE 18:45:08 47° E
Cosmos 1709 Rocket 3.9 18:38:00 10° N 18:44:25 79° E 18:50:49 10° SSE
CZ-4B R/B 4.4 18:43:02 10° NNW 18:45:03 16° WNW 18:47:02 10° WSW
USA 307 3.9 18:41:04 10° WNW 18:45:07 40° SW 18:46:28 31° S
CZ-4C R/B 3.2 18:41:01 10° NW 18:47:29 46° NNE 18:49:38 37° ENE
USA 308 4.0 18:46:05 10° WNW 18:50:04 38° SW 18:51:15 31° S
Cosmos 1825 2.7 18:46:34 10° NNW 18:50:19 58° W 18:52:23 24° SSW
Cosmos 1697 Rocket 2.7 18:52:00 10° SSW 18:57:37 78° WNW 19:01:26 22° NNE
YAOGAN 1 3.7 18:54:06 10° S 18:58:14 44° W 19:02:24 10° NNW
Cosmos 2074 Rocket 4.4 18:52:55 10° N 18:58:06 42° NE 18:58:06 42° NE
Cosmos 883 Rocket 4.3 18:54:26 10° S 19:00:36 88° E 19:06:46 10° N
Cosmos 1812 Rocket 4.0 19:01:07 10° SSW 19:05:28 60° WNW 19:09:49 10° N
CZ-4 R/B 3.3 19:02:20 10° SSW 19:05:43 28° W 19:09:07 10° NW
Cosmos 2315 Rocket 3.8 19:05:13 10° S 19:11:25 87° E 19:17:39 10° N
SL-4 R/B 3.2 19:09:41 10° WNW 19:12:08 35° WSW 19:12:08 35° WSW
Cosmos 2151 3.6 19:10:44 10° NNW 19:14:07 51° NW 19:14:07 51° NW
Cosmos 1980 Rocket 2.0 19:15:36 10° SSW 19:21:12 89° SSW 19:21:12 89° SSW
Geosat 4.4 19:33:07 57° WSW 19:33:07 57° WSW 19:37:12 10° SW
Ariane Rocket 3.8 19:33:54 44° NNW 19:33:54 44° NNW 19:37:23 10° NNW
Cosmos 2227 4.4 19:33:21 10° NNW 19:38:36 67° W 19:38:36 67° W
SeaSat 1 3.1 19:40:26 53° W 19:40:26 53° W 19:44:46 10° NW
H-2A R/B 3.7 19:39:38 10° SSW 19:44:30 33° W 19:49:24 10° NNW
NOSS 3-4 (A) 4.2 19:44:58 10° NW 19:51:47 57° SW 19:53:07 50° SSW
NOSS 3-4 (C) 4.2 19:45:05 10° NW 19:51:53 57° SW 19:53:11 51° SSW
Cosmos 2278 4.3 19:49:32 10° SW 19:54:45 52° WNW 19:54:45 52° WNW
USA 215 3.3 19:57:31 73° NNW 19:57:31 73° NNW 20:03:28 10° WNW
ATLAS 5 CENTAUR R/B 4.0 19:56:48 10° NNW 19:59:05 20° N 19:59:05 20° N
Lacrosse 5 3.4 19:56:37 10° WNW 19:59:23 33° NW 19:59:23 33° NW
COSMOS 2455 4.4 19:59:36 10° NNW 20:02:51 27° N 20:02:51 27° N
Cosmos 2278 Rocket 4.5 20:05:29 10° N 20:06:48 14° N 20:06:48 14° N
ATLAS 2AS CENTAUR R/B 3.3 20:06:36 10° NW 20:13:44 52° WSW 20:13:44 52° WSW
SJ 16-02 4.2 20:10:14 10° NNW 20:10:43 13° NNW 20:10:43 13° NNW
Cosmos 1844 Rocket 4.4 20:10:57 10° NNW 20:13:19 25° NNW 20:13:19 25° NNW
Cosmos 2263 Rocket 3.8 20:22:58 10° NW 20:26:50 30° W 20:26:50 30° W
CZ-4C R/B 3.4 20:29:28 10° NW 20:34:49 54° WNW 20:34:49 54° WNW
